Tracking 19170 objects as of 23-May-2018
HD Live streaming from Space Station
objects crossing your sky now

LEMUR 2 BRIANDAVIE

Track LEMUR 2 BRIANDAVIE now!
10-day predictions
LEMUR 2 BRIANDAVIE is classified as:


NORAD ID: 43047
Int'l Code: 2017-071L
Perigee: 453.3 km
Apogee: 457.1 km
Inclination: 51.6 °
Period: 93.5 minutes
Semi major axis: 6826 km
RCS: Unknown
Launch date: November 12, 2017
Source: United States (US)
Launch site: WALLOPS ISLAND (WLPIS)
aabbcc
Your satellite tracking list
Your tracking list is empty




NASA's NSSDC Master Catalog

Two Line Element Set (TLE):
1 43047U 17071L   18142.69000093  .00002918  00000-0  83586-4 0  9991
2 43047  51.6383 165.3050 0002734 196.4929 163.5967 15.39337390 25694
Source of the keplerian elements: AFSPC